• In Uzbekistan
  • List of Countries
  • For 7 days
  • Water Temperature
  • Satellite Maps
  • Weather Map
  • Weather Widgets
  • user-avatar
    Login

    Hourly Weather Holhol

    Today, 20 October, Saturday

    Time Temperature Precipitation Wind Pressure Humidity
    00:00 +28°C° 0.1 mm 4 mps 713 mmHg 76%
    01:00 +27°C° 0.2 mm 4 mps 713 mmHg 77%
    02:00 +27°C° 0.2 mm 4 mps 713 mmHg 78%
    03:00 +27°C° 0 mm 4 mps 713 mmHg 79%
    04:00 +27°C° 0.4 mm 4 mps 713 mmHg 79%
    05:00 +27°C° 0.4 mm 4 mps 714 mmHg 80%
    06:00 +27°C° 0.4 mm 4 mps 714 mmHg 81%
    07:00 +27°C° 0.3 mm 4 mps 714 mmHg 76%
    08:00 +28°C° 0.3 mm 4 mps 715 mmHg 72%
    09:00 +29°C° 0.3 mm 4 mps 715 mmHg 68%
    10:00 +30°C° 0.1 mm 4 mps 715 mmHg 63%
    11:00 +32°C° 0.1 mm 5 mps 715 mmHg 58%
    12:00 +33°C° 0.1 mm 5 mps 715 mmHg 53%
    13:00 +33°C° 0 mm 5 mps 714 mmHg 53%
    14:00 +33°C° 0 mm 5 mps 714 mmHg 53%
    15:00 +33°C° 0 mm 5 mps 713 mmHg 53%
    16:00 +32°C° 0 mm 5 mps 713 mmHg 58%
    17:00 +30°C° 0 mm 5 mps 713 mmHg 63%
    18:00 +29°C° 0 mm 5 mps 713 mmHg 68%
    19:00 +29°C° 0 mm 4 mps 713 mmHg 70%
    20:00 +28°C° 0 mm 4 mps 713 mmHg 73%
    21:00 +28°C° 0 mm 4 mps 714 mmHg 75%
    22:00 +28°C° 0 mm 3 mps 714 mmHg 76%
    23:00 +28°C° 0 mm 3 mps 714 mmHg 77%

    Tomorrow, 21 October, Sunday

    Time Temperature Precipitation Wind Pressure Humidity
    00:00 +28°C° 0 mm 3 mps 714 mmHg 77%
    01:00 +27°C° 0.3 mm 4 mps 714 mmHg 78%
    02:00 +27°C° 0.3 mm 4 mps 713 mmHg 78%
    03:00 +27°C° 0.3 mm 4 mps 713 mmHg 79%
    04:00 +27°C° 0.3 mm 4 mps 713 mmHg 79%
    05:00 +27°C° 0.3 mm 4 mps 714 mmHg 80%
    06:00 +27°C° 0.3 mm 4 mps 714 mmHg 80%
    07:00 +27°C° 0.4 mm 4 mps 714 mmHg 77%
    08:00 +28°C° 0.4 mm 4 mps 715 mmHg 74%
    09:00 +28°C° 0.4 mm 4 mps 715 mmHg 71%
    10:00 +29°C° 0.2 mm 5 mps 715 mmHg 67%
    11:00 +30°C° 0.2 mm 5 mps 715 mmHg 63%
    12:00 +32°C° 0.2 mm 5 mps 715 mmHg 60%
    13:00 +32°C° 0 mm 6 mps 714 mmHg 59%
    14:00 +32°C° 0 mm 6 mps 713 mmHg 59%
    15:00 +32°C° 0 mm 6 mps 713 mmHg 59%
    16:00 +30°C° 0 mm 6 mps 713 mmHg 63%
    17:00 +30°C° 0 mm 6 mps 713 mmHg 67%
    18:00 +29°C° 0 mm 5 mps 713 mmHg 71%
    19:00 +28°C° 0.2 mm 5 mps 713 mmHg 73%
    20:00 +28°C° 0.2 mm 5 mps 714 mmHg 74%
    21:00 +28°C° 0.2 mm 4 mps 715 mmHg 76%
    22:00 +27°C° 0 mm 4 mps 715 mmHg 76%
    23:00 +27°C° 0 mm 4 mps 715 mmHg 77%

    Day after tomorrow, 22 October, Monday

    Time Temperature Precipitation Wind Pressure Humidity
    00:00 +27°C° 0 mm 4 mps 715 mmHg 78%
    01:00 +27°C° 0 mm 4 mps 714 mmHg 78%
    02:00 +27°C° 0 mm 4 mps 714 mmHg 79%
    03:00 +27°C° 0 mm 4 mps 714 mmHg 80%
    04:00 +26°C° 0.1 mm 4 mps 714 mmHg 80%
    05:00 +26°C° 0.1 mm 5 mps 714 mmHg 80%
    06:00 +26°C° 0.1 mm 5 mps 715 mmHg 80%
    07:00 +27°C° 0.1 mm 5 mps 715 mmHg 77%
    08:00 +27°C° 0.1 mm 5 mps 716 mmHg 74%
    09:00 +28°C° 0.1 mm 6 mps 716 mmHg 70%
    10:00 +29°C° 0.1 mm 6 mps 716 mmHg 68%
    11:00 +29°C° 0.1 mm 6 mps 716 mmHg 65%
    12:00 +30°C° 0.1 mm 6 mps 715 mmHg 62%
    13:00 +30°C° 0 mm 6 mps 714 mmHg 62%
    14:00 +30°C° 0 mm 6 mps 714 mmHg 63%
    15:00 +30°C° 0 mm 6 mps 713 mmHg 63%
    16:00 +29°C° 0 mm 6 mps 713 mmHg 65%
    17:00 +28°C° 0 mm 5 mps 713 mmHg 68%
    18:00 +28°C° 0 mm 5 mps 713 mmHg 70%
    19:00 +27°C° 0 mm 5 mps 714 mmHg 72%
    20:00 +27°C° 0 mm 5 mps 714 mmHg 73%
    21:00 +27°C° 0 mm 4 mps 715 mmHg 75%
    22:00 +27°C° 0 mm 4 mps 715 mmHg 76%
    23:00 +26°C° 0 mm 4 mps 715 mmHg 77%

    23 October, Tuesday

    Time Temperature Precipitation Wind Pressure Humidity
    00:00 +26°C° 0 mm 4 mps 715 mmHg 78%
    01:00 +26°C° 0.1 mm 4 mps 714 mmHg 78%
    02:00 +26°C° 0.1 mm 4 mps 714 mmHg 78%
    03:00 +26°C° 0.1 mm 4 mps 714 mmHg 79%
    04:00 +26°C° 0.1 mm 4 mps 714 mmHg 79%
    05:00 +26°C° 0.1 mm 4 mps 715 mmHg 80%
    06:00 +26°C° 0.1 mm 4 mps 715 mmHg 81%
    07:00 +26°C° 0.1 mm 5 mps 716 mmHg 78%
    08:00 +27°C° 0.1 mm 5 mps 716 mmHg 75%
    09:00 +27°C° 0.1 mm 5 mps 717 mmHg 73%
    10:00 +28°C° 0.1 mm 5 mps 716 mmHg 70%
    11:00 +29°C° 0.1 mm 6 mps 716 mmHg 68%
    12:00 +29°C° 0.1 mm 6 mps 715 mmHg 65%
    13:00 +29°C° 0 mm 6 mps 714 mmHg 65%
    14:00 +30°C° 0 mm 6 mps 714 mmHg 64%
    15:00 +30°C° 0 mm 6 mps 713 mmHg 63%
    16:00 +29°C° 0 mm 6 mps 713 mmHg 66%
    17:00 +28°C° 0 mm 5 mps 713 mmHg 69%
    18:00 +28°C° 0 mm 5 mps 713 mmHg 72%
    19:00 +27°C° 0 mm 5 mps 714 mmHg 73%
    20:00 +27°C° 0 mm 4 mps 715 mmHg 75%
    21:00 +27°C° 0 mm 4 mps 715 mmHg 77%
    22:00 +27°C° 0.1 mm 4 mps 715 mmHg 78%
    23:00 +27°C° 0.1 mm 4 mps 715 mmHg 79%

    24 October, Wednesday

    Time Temperature Precipitation Wind Pressure Humidity
    00:00 +27°C° 0.1 mm 4 mps 715 mmHg 80%
    01:00 +26°C° 0.2 mm 4 mps 714 mmHg 81%
    02:00 +26°C° 0.2 mm 4 mps 714 mmHg 81%
    03:00 +26°C° 0.2 mm 4 mps 714 mmHg 82%
    04:00 +26°C° 0.2 mm 4 mps 714 mmHg 82%
    05:00 +26°C° 0.2 mm 4 mps 715 mmHg 82%
    06:00 +26°C° 0.2 mm 3 mps 715 mmHg 82%
    07:00 +26°C° 0.2 mm 4 mps 715 mmHg 78%
    08:00 +27°C° 0.2 mm 4 mps 716 mmHg 74%
    09:00 +28°C° 0.2 mm 4 mps 716 mmHg 71%
    10:00 +28°C° 0.1 mm 5 mps 716 mmHg 67%
    11:00 +29°C° 0.1 mm 5 mps 715 mmHg 64%
    12:00 +30°C° 0.1 mm 5 mps 714 mmHg 61%
    13:00 +30°C° 0 mm 5 mps 714 mmHg 61%
    14:00 +30°C° 0 mm 6 mps 713 mmHg 62%
    15:00 +30°C° 0 mm 6 mps 713 mmHg 63%
    16:00 +29°C° 0 mm 6 mps 713 mmHg 65%
    17:00 +29°C° 0 mm 5 mps 713 mmHg 68%
    18:00 +28°C° 0 mm 5 mps 713 mmHg 71%
    19:00 +28°C° 0 mm 5 mps 714 mmHg 73%
    20:00 +28°C° 0 mm 4 mps 714 mmHg 75%
    21:00 +27°C° 0 mm 4 mps 714 mmHg 77%
    22:00 +27°C° 0.3 mm 4 mps 714 mmHg 77%
    23:00 +27°C° 0.3 mm 4 mps 714 mmHg 78%

    25 October, Thursday

    Time Temperature Precipitation Wind Pressure Humidity
    00:00 +27°C° 0.3 mm 4 mps 714 mmHg 79%
    01:00 +27°C° 0.3 mm 4 mps 714 mmHg 80%
    02:00 +26°C° 0.3 mm 4 mps 713 mmHg 80%
    03:00 +26°C° 0.3 mm 4 mps 713 mmHg 81%
    04:00 +26°C° 0.3 mm 4 mps 713 mmHg 82%
    05:00 +26°C° 0.3 mm 4 mps 714 mmHg 82%
    06:00 +26°C° 0.3 mm 4 mps 714 mmHg 83%
    07:00 +27°C° 0.3 mm 4 mps 715 mmHg 79%
    08:00 +27°C° 0.3 mm 4 mps 715 mmHg 75%
    09:00 +28°C° 0.3 mm 5 mps 715 mmHg 71%
    10:00 +29°C° 0.2 mm 5 mps 715 mmHg 67%
    11:00 +30°C° 0.2 mm 5 mps 714 mmHg 63%
    12:00 +30°C° 0.2 mm 6 mps 714 mmHg 59%
    13:00 +30°C° 0 mm 6 mps 713 mmHg 59%
    14:00 +30°C° 0 mm 6 mps 713 mmHg 59%
    15:00 +30°C° 0 mm 6 mps 712 mmHg 59%
    16:00 +30°C° 0 mm 6 mps 712 mmHg 63%
    17:00 +29°C° 0 mm 5 mps 712 mmHg 67%
    18:00 +28°C° 0 mm 5 mps 713 mmHg 70%
    19:00 +28°C° 0.2 mm 5 mps 713 mmHg 72%
    20:00 +28°C° 0.2 mm 4 mps 713 mmHg 75%
    21:00 +27°C° 0.2 mm 4 mps 714 mmHg 77%
    22:00 +27°C° 0.2 mm 4 mps 714 mmHg 78%
    23:00 +27°C° 0.2 mm 4 mps 714 mmHg 79%
    Show more